| time (UTC) | temp C | wind direction | speed KPH | gust KPH | rain 1hr cm | rain 24hr cm | rain mn cm | humidity % | barometer mb |
| 20260510221116 | 32 | 357 | 14.5 | 27.4 | 0.00 | 0.00 | 0.00 | 59 | 1014.3 |
| 20260510220117 | 32 | 10 | 14.5 | 29.0 | 0.00 | 0.00 | 0.00 | 58 | 1014.3 |
| 20260510215115 | 32 | 297 | 11.3 | 20.9 | 0.00 | 0.00 | 0.00 | 60 | 1014.2 |
| 20260510214113 | 32 | 350 | 16.1 | 27.4 | 0.00 | 0.00 | 0.00 | 59 | 1014.2 |
| 20260510213117 | 31 | 5 | 12.9 | 22.5 | 0.00 | 0.00 | 0.00 | 61 | 1014.3 |
| 20260510212548 | 31 | 346 | 17.7 | 29.0 | 0.00 | 0.00 | 0.00 | 62 | 1014.3 |
| 20260510211113 | 31 | 335 | 16.1 | 33.8 | 0.00 | 0.00 | 0.00 | 59 | 1014.4 |
| 20260510210118 | 32 | 352 | 14.5 | 32.2 | 0.00 | 0.00 | 0.00 | 57 | 1014.4 |
| 20260510204048 | 35 | 289 | 8.0 | 19.3 | 0.00 | 0.00 | 0.00 | 48 | 1014.2 |
| 20260510203047 | 35 | 236 | 4.8 | 12.9 | 0.00 | 0.00 | 0.00 | 50 | 1014.3 |
| 20260510202526 | 34 | 286 | 8.0 | 17.7 | 0.00 | 0.00 | 0.00 | 50 | 1014.3 |
| 20260510201045 | 35 | 310 | 8.0 | 17.7 | 0.00 | 0.00 | 0.00 | 50 | 1014.3 |
| 20260510200528 | 34 | 252 | 6.4 | 16.1 | 0.00 | 0.00 | 0.00 | 50 | 1014.3 |
| 20260510195046 | 35 | 264 | 6.4 | 14.5 | 0.00 | 0.00 | 0.00 | 48 | 1014.3 |
| 20260510194046 | 35 | 271 | 8.0 | 20.9 | 0.00 | 0.00 | 0.00 | 49 | 1014.3 |
| 20260510193047 | 34 | 275 | 4.8 | 12.9 | 0.00 | 0.00 | 0.00 | 51 | 1014.4 |
| 20260510192047 | 34 | 296 | 6.4 | 12.9 | 0.00 | 0.00 | 0.00 | 51 | 1014.5 |
| 20260510191046 | 34 | 270 | 8.0 | 17.7 | 0.00 | 0.00 | 0.00 | 51 | 1014.6 |
| 20260510190047 | 35 | 270 | 8.0 | 17.7 | 0.00 | 0.00 | 0.00 | 48 | 1014.6 |
| 20260510185045 | 35 | 333 | 4.8 | 16.1 | 0.00 | 0.00 | 0.00 | 50 | 1014.7 |
| 20260510184043 | 34 | 235 | 4.8 | 14.5 | 0.00 | 0.00 | 0.00 | 50 | 1014.8 |
| 20260510183519 | 34 | 331 | 6.4 | 16.1 | 0.00 | 0.00 | 0.00 | 51 | 1015.0 |
| 20260510182043 | 34 | 194 | 8.0 | 17.7 | 0.00 | 0.00 | 0.00 | 50 | 1015.1 |
| 20260510181047 | 34 | 231 | 6.4 | 17.7 | 0.00 | 0.00 | 0.00 | 50 | 1015.2 |
| 20260510180528 | 35 | 250 | 8.0 | 20.9 | 0.00 | 0.00 | 0.00 | 49 | 1015.4 |
| 20260510175042 | 35 | 298 | 4.8 | 19.3 | 0.00 | 0.00 | 0.00 | 48 | 1015.6 |
| 20260510174042 | 34 | 201 | 6.4 | 17.7 | 0.00 | 0.00 | 0.00 | 49 | 1015.7 |
| 20260510173043 | 35 | 196 | 6.4 | 16.1 | 0.00 | 0.00 | 0.00 | 50 | 1015.9 |
| 20260510172519 | 34 | 254 | 4.8 | 14.5 | 0.00 | 0.00 | 0.00 | 50 | 1015.9 |
| 20260510171513 | 34 | 277 | 8.0 | 17.7 | 0.00 | 0.00 | 0.00 | 49 | 1016.0 |
| 20260510170511 | 32 | 223 | 6.4 | 17.7 | 0.00 | 0.00 | 0.00 | 52 | 1016.2 |
| 20260510165035 | 33 | 231 | 8.0 | 17.7 | 0.00 | 0.00 | 0.00 | 52 | 1016.4 |
| 20260510164523 | 32 | 271 | 6.4 | 17.7 | 0.00 | 0.00 | 0.00 | 53 | 1016.4 |
| 20260510163035 | 32 | 221 | 8.0 | 16.1 | 0.00 | 0.00 | 0.00 | 52 | 1016.6 |
| 20260510162033 | 33 | 237 | 8.0 | 16.1 | 0.00 | 0.00 | 0.00 | 52 | 1016.6 |
| 20260510161031 | 33 | 244 | 6.4 | 17.7 | 0.00 | 0.00 | 0.00 | 52 | 1016.6 |
| 20260510160033 | 32 | 235 | 8.0 | 22.5 | 0.00 | 0.00 | 0.00 | 51 | 1016.7 |
| 20260510155030 | 32 | 188 | 8.0 | 17.7 | 0.00 | 0.00 | 0.00 | 52 | 1016.6 |
| 20260510154029 | 32 | 163 | 8.0 | 17.7 | 0.00 | 0.00 | 0.00 | 51 | 1016.7 |
| 20260510153031 | 31 | 242 | 8.0 | 17.7 | 0.00 | 0.00 | 0.00 | 53 | 1016.7 |
| 20260510152031 | 31 | 239 | 8.0 | 17.7 | 0.00 | 0.00 | 0.00 | 57 | 1016.8 |
| 20260510151027 | 31 | 221 | 8.0 | 14.5 | 0.00 | 0.00 | 0.00 | 58 | 1016.8 |
| 20260510150027 | 30 | 243 | 6.4 | 19.3 | 0.00 | 0.00 | 0.00 | 61 | 1016.6 |
| 20260510145023 | 30 | 236 | 6.4 | 14.5 | 0.00 | 0.00 | 0.00 | 67 | 1016.6 |
| 20260510144018 | 29 | 244 | 6.4 | 14.5 | 0.00 | 0.00 | 0.00 | 72 | 1016.5 |
| 20260510143013 | 29 | 231 | 6.4 | 16.1 | 0.00 | 0.00 | 0.00 | 73 | 1016.6 |
| 20260510142009 | 28 | 189 | 4.8 | 14.5 | 0.00 | 0.00 | 0.00 | 75 | 1016.5 |
| 20260510141008 | 28 | 185 | 4.8 | 11.3 | 0.00 | 0.00 | 0.00 | 76 | 1016.5 |
| 20260510140008 | 28 | 224 | 4.8 | 9.7 | 0.00 | 0.00 | 0.00 | 79 | 1016.6 |
| 20260510135008 | 27 | 183 | 4.8 | 9.7 | 0.00 | 0.00 | 0.00 | 80 | 1016.6 |
| 20260510134008 | 27 | 199 | 4.8 | 9.7 | 0.00 | 0.00 | 0.00 | 81 | 1016.5 |
| 20260510133005 | 26 | 239 | 3.2 | 11.3 | 0.00 | 0.00 | 0.00 | 84 | 1016.4 |
| 20260510132447 | 26 | 229 | 3.2 | 6.4 | 0.00 | 0.00 | 0.00 | 85 | 1016.4 |
| 20260510131006 | 26 | 252 | 3.2 | 6.4 | 0.00 | 0.00 | 0.00 | 86 | 1016.3 |
| 20260510130454 | 25 | 317 | 0.0 | 3.2 | 0.00 | 0.00 | 0.00 | 88 | 1016.4 |
| 20260510125436 | 25 | 318 | 0.0 | 1.6 | 0.00 | 0.00 | 0.00 | 90 | 1016.3 |
| 20260510123958 | 25 | 318 | 0.0 | 1.6 | 0.00 | 0.00 | 0.00 | 91 | 1016.3 |
| 20260510122953 | 24 | 317 | 0.0 | 0.0 | 0.00 | 0.00 | 0.00 | 92 | 1016.2 |
| 20260510121945 | 23 | 318 | 0.0 | 0.0 | 0.00 | 0.00 | 0.00 | 93 | 1016.1 |
| 20260510120948 | 23 | 318 | 0.0 | 0.0 | 0.00 | 0.00 | 0.00 | 93 | 1015.9 |
| 20260510115942 | 23 | 321 | 0.0 | 0.0 | 0.00 | 0.00 | 0.00 | 94 | 1015.9 |
| 20260510114940 | 23 | 321 | 0.0 | 1.6 | 0.00 | 0.00 | 0.00 | 94 | 1015.8 |
| 20260510113935 | 23 | 320 | 1.6 | 3.2 | 0.00 | 0.00 | 0.00 | 94 | 1015.6 |
| 20260510112934 | 22 | 321 | 3.2 | 8.0 | 0.00 | 0.00 | 0.00 | 94 | 1015.3 |
| 20260510112420 | 22 | 254 | 1.6 | 4.8 | 0.00 | 0.00 | 0.00 | 94 | 1015.0 |
| 20260510110931 | 22 | 186 | 0.0 | 1.6 | 0.00 | 0.00 | 0.00 | 94 | 1014.7 |
| 20260510105922 | 22 | 187 | 3.2 | 8.0 | 0.00 | 0.00 | 0.00 | 94 | 1014.4 |
| 20260510104915 | 22 | 175 | 0.0 | 1.6 | 0.00 | 0.00 | 0.00 | 94 | 1014.4 |
| 20260510104835 | 22 | 174 | 0.0 | 3.2 | 0.00 | 0.00 | 0.00 | 94 | 1014.2 |
| 20260510103355 | 22 | 175 | 1.6 | 6.4 | 0.00 | 0.00 | 0.00 | 94 | 1013.8 |
| 20260510101915 | 22 | 174 | 0.0 | 0.0 | 0.00 | 0.00 | 0.00 | 94 | 1013.8 |
| 20260510101837 | 22 | 175 | 0.0 | 1.6 | 0.00 | 0.00 | 0.00 | 93 | 1013.8 |
| 20260510100833 | 22 | 175 | 0.0 | 0.0 | 0.00 | 0.00 | 0.00 | 93 | 1013.8 |
| 20260510094905 | 23 | 175 | 0.0 | 0.0 | 0.00 | 0.00 | 0.00 | 94 | 1013.7 |
| 20260510093906 | 23 | 175 | 0.0 | 0.0 | 0.00 | 0.00 | 0.00 | 93 | 1013.6 |
| 20260510092905 | 23 | 175 | 0.0 | 0.0 | 0.00 | 0.00 | 0.00 | 93 | 1013.6 |
| 20260510091906 | 23 | 175 | 1.6 | 6.4 | 0.00 | 0.00 | 0.00 | 94 | 1013.6 |
| 20260510090906 | 23 | 175 | 1.6 | 6.4 | 0.00 | 0.00 | 0.00 | 93 | 1013.5 |
| 20260510085858 | 23 | 175 | 1.6 | 6.4 | 0.00 | 0.00 | 0.00 | 93 | 1013.4 |
| 20260510084855 | 23 | 175 | 0.0 | 3.2 | 0.00 | 0.00 | 0.00 | 93 | 1013.4 |
| 20260510083855 | 23 | 175 | 1.6 | 8.0 | 0.00 | 0.00 | 0.00 | 93 | 1013.6 |
| 20260510082855 | 23 | 175 | 3.2 | 8.0 | 0.00 | 0.00 | 0.00 | 93 | 1013.6 |
| 20260510082353 | 22 | 151 | 3.2 | 4.8 | 0.00 | 0.00 | 0.00 | 93 | 1013.6 |
| 20260510080840 | 22 | 38 | 0.0 | 4.8 | 0.00 | 0.00 | 0.00 | 92 | 1013.7 |
| 20260510075840 | 22 | 38 | 0.0 | 1.6 | 0.00 | 0.00 | 0.00 | 92 | 1013.9 |
| 20260510074841 | 22 | 38 | 0.0 | 0.0 | 0.00 | 0.00 | 0.00 | 91 | 1014.1 |
| 20260510073842 | 22 | 38 | 0.0 | 0.0 | 0.00 | 0.00 | 0.00 | 91 | 1014.0 |
| 20260510072841 | 22 | 38 | 0.0 | 0.0 | 0.00 | 0.00 | 0.00 | 91 | 1014.0 |
| 20260510071838 | 22 | 38 | 0.0 | 3.2 | 0.00 | 0.00 | 0.00 | 90 | 1014.0 |
| 20260510070835 | 23 | 38 | 0.0 | 0.0 | 0.00 | 0.00 | 0.00 | 90 | 1014.0 |
| 20260510065838 | 23 | 38 | 0.0 | 1.6 | 0.00 | 0.00 | 0.00 | 90 | 1014.0 |
| 20260510064834 | 23 | 38 | 0.0 | 1.6 | 0.00 | 0.00 | 0.00 | 90 | 1014.0 |
| 20260510063835 | 23 | 38 | 0.0 | 1.6 | 0.00 | 0.00 | 0.00 | 89 | 1014.0 |
| 20260510062827 | 23 | 38 | 0.0 | 1.6 | 0.00 | 0.00 | 0.00 | 89 | 1014.1 |
| 20260510061826 | 23 | 38 | 0.0 | 0.0 | 0.00 | 0.00 | 0.00 | 89 | 1014.2 |
| 20260510060827 | 23 | 38 | 0.0 | 3.2 | 0.00 | 0.00 | 0.00 | 89 | 1014.4 |
| 20260510055826 | 23 | 38 | 0.0 | 0.0 | 0.00 | 0.00 | 0.00 | 90 | 1014.5 |
| 20260510054826 | 23 | 38 | 0.0 | 0.0 | 0.00 | 0.00 | 0.00 | 89 | 1014.7 |
| 20260510053828 | 23 | 38 | 0.0 | 0.0 | 0.00 | 0.00 | 0.00 | 89 | 1014.7 |
| 20260510052826 | 23 | 38 | 0.0 | 0.0 | 0.00 | 0.00 | 0.00 | 89 | 1014.7 |
| 20260510051815 | 23 | 38 | 0.0 | 1.6 | 0.00 | 0.00 | 0.00 | 88 | 1014.6 |
| 20260510050814 | 23 | 38 | 0.0 | 1.6 | 0.00 | 0.00 | 0.00 | 87 | 1014.8 |
| 20260510045816 | 23 | 38 | 0.0 | 0.0 | 0.00 | 0.00 | 0.00 | 88 | 1014.9 |
| 20260510044814 | 23 | 38 | 0.0 | 0.0 | 0.00 | 0.00 | 0.00 | 87 | 1015.0 |
| 20260510043813 | 24 | 38 | 0.0 | 0.0 | 0.00 | 0.00 | 0.00 | 87 | 1014.9 |
| 20260510042812 | 24 | 38 | 0.0 | 1.6 | 0.00 | 0.00 | 0.00 | 85 | 1015.1 |
| 20260510041811 | 25 | 38 | 3.2 | 6.4 | 0.00 | 0.00 | 0.00 | 85 | 1015.0 |
| 20260510040812 | 25 | 27 | 1.6 | 4.8 | 0.00 | 0.00 | 0.00 | 84 | 1015.1 |
| 20260510035812 | 24 | 27 | 0.0 | 1.6 | 0.00 | 0.00 | 0.00 | 86 | 1015.1 |
| 20260510034815 | 24 | 27 | 0.0 | 1.6 | 0.00 | 0.00 | 0.00 | 85 | 1015.2 |
| 20260510033804 | 24 | 27 | 0.0 | 0.0 | 0.00 | 0.00 | 0.00 | 85 | 1015.0 |
| 20260510032802 | 25 | 27 | 0.0 | 0.0 | 0.00 | 0.00 | 0.00 | 83 | 1015.1 |
| 20260510031805 | 25 | 27 | 1.6 | 3.2 | 0.00 | 0.00 | 0.00 | 83 | 1015.0 |
| 20260510030802 | 25 | 27 | 1.6 | 4.8 | 0.00 | 0.00 | 0.00 | 82 | 1015.0 |
| 20260510025803 | 25 | 27 | 3.2 | 4.8 | 0.00 | 0.00 | 0.00 | 81 | 1015.0 |
| 20260510024753 | 26 | 23 | 3.2 | 4.8 | 0.00 | 0.00 | 0.00 | 81 | 1014.9 |
| 20260510023752 | 26 | 23 | 1.6 | 4.8 | 0.00 | 0.00 | 0.00 | 80 | 1014.8 |
| 20260510022753 | 26 | 23 | 1.6 | 6.4 | 0.00 | 0.00 | 0.00 | 80 | 1014.7 |
| 20260510021754 | 26 | 23 | 4.8 | 9.7 | 0.00 | 0.00 | 0.00 | 79 | 1014.6 |
| 20260510020751 | 26 | 15 | 4.8 | 8.0 | 0.00 | 0.00 | 0.00 | 78 | 1014.6 |
| 20260510015751 | 26 | 10 | 6.4 | 12.9 | 0.00 | 0.00 | 0.00 | 77 | 1014.5 |
| 20260510015229 | 27 | 22 | 6.4 | 16.1 | 0.00 | 0.00 | 0.00 | 76 | 1014.4 |
| 20260510013749 | 27 | 15 | 9.7 | 19.3 | 0.00 | 0.00 | 0.00 | 76 | 1014.2 |
| 20260510012752 | 27 | 337 | 8.0 | 17.7 | 0.00 | 0.00 | 0.00 | 75 | 1014.1 |
| 20260510011734 | 28 | 23 | 8.0 | 16.1 | 0.00 | 0.00 | 0.00 | 74 | 1013.8 |
| 20260510011218 | 28 | 20 | 11.3 | 24.1 | 0.00 | 0.00 | 0.00 | 73 | 1013.6 |
| 20260510010214 | 28 | 23 | 11.3 | 19.3 | 0.00 | 0.00 | 0.00 | 72 | 1013.3 |
| 20260510004736 | 28 | 334 | 11.3 | 24.1 | 0.00 | 0.00 | 0.00 | 69 | 1013.1 |
| 20260510003730 | 29 | 37 | 8.0 | 22.5 | 0.00 | 0.00 | 0.00 | 65 | 1012.9 |
| 20260510003211 | 30 | 321 | 3.2 | 6.4 | 0.00 | 0.00 | 0.00 | 60 | 1012.7 |
| 20260510001729 | 30 | 305 | 1.6 | 6.4 | 0.00 | 0.00 | 0.00 | 60 | 1012.5 |
| 20260510000728 | 30 | 308 | 4.8 | 14.5 | 0.00 | 0.00 | 0.00 | 58 | 1012.2 |
| 20260509235729 | 30 | 309 | 6.4 | 16.1 | 0.00 | 0.00 | 0.00 | 57 | 1012.1 |
| 20260509234729 | 31 | 300 | 6.4 | 12.9 | 0.00 | 0.00 | 0.00 | 56 | 1011.9 |
| 20260509233729 | 31 | 309 | 8.0 | 17.7 | 0.00 | 0.00 | 0.00 | 55 | 1011.8 |
| 20260509232725 | 32 | 310 | 8.0 | 20.9 | 0.00 | 0.00 | 0.00 | 53 | 1011.6 |
| 20260509231725 | 32 | 274 | 8.0 | 19.3 | 0.00 | 0.00 | 0.00 | 52 | 1011.5 |
| 20260509230709 | 33 | 282 | 9.7 | 22.5 | 0.00 | 0.00 | 0.00 | 50 | 1011.4 |
| 20260509225710 | 33 | 275 | 8.0 | 17.7 | 0.00 | 0.00 | 0.00 | 51 | 1011.3 |
| 20260509224711 | 33 | 281 | 8.0 | 17.7 | 0.00 | 0.00 | 0.00 | 51 | 1011.1 |
| 20260509223710 | 33 | 235 | 8.0 | 17.7 | 0.00 | 0.00 | 0.00 | 51 | 1011.0 |
| 20260509222709 | 33 | 294 | 8.0 | 17.7 | 0.00 | 0.00 | 0.00 | 51 | 1011.0 |
| 20260509221713 | 33 | 273 | 6.4 | 14.5 | 0.00 | 0.00 | 0.00 | 52 | 1011.0 |